Hillsdale, MI

3:55 PM EDT on August 19, 2017 (GMT -0400)
Hillsdale Municipal

Weather History for KJYM - April, 2014

Change the Weather History Date:

Friday, April 25, 2014

  Actual Average Record
Temperature  
Mean Temperature 50 °F -  
Max Temperature 59 °F 59 °F 83 °F (1990)
Min Temperature 42 °F 36 °F 19 °F (1967)
Degree Days  
Heating Degree Days 14    
Moisture  
Dew Point 38 °F    
Average Humidity 69    
Maximum Humidity 98    
Minimum Humidity 45    
Precipitation  
Precipitation 0.00 in - - ()
Sea Level Pressure  
Sea Level Pressure 29.74 in    
Wind  
Wind Speed 9 mph (NNW)    
Max Wind Speed 20 mph    
Max Gust Speed 31 mph    
Visibility 8 miles    
Events Rain    
Averages and records for this station are not official NWS values.
T = Trace of Precipitation, MM = Missing Value Source: NWS Daily Summary

Daily Weather History Graph

Daily Weather History Graph

Search for Another Location

Airport or City:

Trip Planner

Search our weather history database for the weather conditions in past years. The results will help you decide how hot, cold, wet, or windy it might be!

Date:

Astronomy

Apr. 25, 2014 Rise Set
Actual Time 6:42 AM EDT 8:30 PM EDT
Civil Twilight 6:13 AM EDT 9:00 PM EDT
Nautical Twilight 5:36 AM EDT 9:36 PM EDT
Astronomical Twilight 4:57 AM EDT 10:15 PM EDT
Moon 4:34 AM EDT (4/25) 4:48 PM EDT (4/25)
Length of Visible Light 14h 47m
Length of Day
13h 47m
Waning Crescent, 15% of the Moon is Illuminated
Apr 25
Waning Crescent
Apr 29
New
May 6
First Quarter
May 14
Full
May 21
Last Quarter

Hourly Weather History & Observations

Time (EDT) Temp. Windchill Dew Point Humidity Pressure Visibility Wind Dir Wind Speed Gust Speed Precip Events Conditions
12:15 AM 45.1 °F 39.9 °F 24.8 °F 45% 29.82 in 10.0 mi ESE 10.4 mph - N/A   Clear
12:34 AM 45.0 °F 39.3 °F 25.2 °F 46% 29.80 in 10.0 mi ESE 11.5 mph - N/A   Clear
12:55 AM 45.3 °F 39.7 °F 25.9 °F 47% 29.79 in 10.0 mi ESE 11.5 mph - N/A   Clear
1:15 AM 46.0 °F 40.2 °F 26.1 °F 46% 29.79 in 10.0 mi ESE 12.7 mph 17.3 mph N/A   Clear
1:34 AM 45.9 °F 39.7 °F 26.8 °F 47% 29.78 in 10.0 mi ESE 13.8 mph 18.4 mph N/A   Clear
1:55 AM 46.0 °F 39.9 °F 27.5 °F 48% 29.76 in 10.0 mi ESE 13.8 mph 18.4 mph N/A   Clear
2:15 AM 46.8 °F - 27.9 °F 48% 29.75 in 10.0 mi ESE 11.5 mph - N/A   Scattered Clouds
2:34 AM 46.4 °F 41.1 °F 28.0 °F 49% 29.75 in 10.0 mi ESE 11.5 mph - N/A   Mostly Cloudy
2:55 AM 46.8 °F - 28.4 °F 49% 29.73 in 10.0 mi ESE 11.5 mph - N/A   Scattered Clouds
3:14 AM 46.0 °F 41.0 °F 28.6 °F 51% 29.72 in 10.0 mi ESE 10.4 mph - N/A   Clear
3:34 AM 46.6 °F - 28.6 °F 50% 29.71 in 10.0 mi East 9.2 mph - N/A   Scattered Clouds
3:55 AM 45.9 °F 41.2 °F 29.7 °F 53% 29.71 in 10.0 mi East 9.2 mph - N/A   Mostly Cloudy
4:14 AM 45.7 °F 41.5 °F 30.0 °F 54% 29.70 in 10.0 mi East 8.1 mph - N/A   Mostly Cloudy
4:34 AM 46.0 °F 43.9 °F 30.4 °F 54% 29.69 in 10.0 mi ENE 4.6 mph 9.2 mph N/A   Overcast
4:55 AM 46.0 °F 43.9 °F 30.6 °F 55% 29.70 in 10.0 mi ENE 4.6 mph - N/A   Overcast
5:14 AM 45.9 °F 42.9 °F 31.1 °F 56% 29.68 in 10.0 mi East 5.8 mph - N/A   Overcast
5:34 AM 45.9 °F 41.2 °F 30.9 °F 56% 29.67 in 10.0 mi East 9.2 mph - N/A   Mostly Cloudy
5:55 AM 45.7 °F 42.0 °F 30.9 °F 56% 29.66 in 10.0 mi East 6.9 mph - N/A   Mostly Cloudy
6:14 AM 45.7 °F 42.7 °F 30.7 °F 56% 29.66 in 10.0 mi East 5.8 mph - N/A   Mostly Cloudy
6:35 AM 45.9 °F 43.6 °F 30.9 °F 56% 29.66 in 10.0 mi East 4.6 mph - N/A   Mostly Cloudy
6:55 AM 44.8 °F 43.3 °F 32.7 °F 63% 29.67 in 5.0 mi East 3.5 mph - N/A Rain Light Rain
7:14 AM 44.2 °F - 35.4 °F 71% 29.67 in 10.0 mi Calm Calm - N/A Rain Light Rain
7:35 AM 43.2 °F - 38.8 °F 85% 29.68 in 10.0 mi Calm Calm - N/A Rain Rain
7:55 AM 43.2 °F 40.5 °F 39.0 °F 85% 29.67 in 10.0 mi East 4.6 mph - N/A Rain Light Rain
8:14 AM 42.6 °F 40.9 °F 39.2 °F 88% 29.68 in 7.0 mi East 3.5 mph - N/A Rain Light Rain
8:35 AM 42.3 °F 39.4 °F 39.9 °F 91% 29.67 in 7.0 mi ENE 4.6 mph - N/A Rain Light Rain
8:54 AM 42.3 °F 39.4 °F 40.5 °F 93% 29.66 in 5.0 mi ENE 4.6 mph - N/A Rain Light Rain
9:14 AM 42.6 °F - 41.5 °F 96% 29.66 in 3.0 mi Calm Calm - N/A Rain Rain
9:34 AM 43.0 °F - 42.1 °F 97% 29.65 in 4.0 mi Calm Calm - N/A Rain Rain
9:54 AM 43.3 °F - 42.6 °F 97% 29.65 in 7.0 mi Calm Calm - N/A Rain Light Rain
10:15 AM 44.1 °F 41.5 °F 43.2 °F 97% 29.67 in 5.0 mi NW 4.6 mph - N/A Rain Light Rain
10:34 AM 44.1 °F 40.8 °F 43.2 °F 97% 29.67 in 2.5 mi NW 5.8 mph - N/A   Overcast
10:54 AM 44.1 °F 40.8 °F 43.3 °F 97% 29.68 in 4.0 mi NW 5.8 mph - N/A Rain Rain
11:15 AM 44.2 °F 41.8 °F 43.5 °F 97% 29.67 in 3.0 mi NNW 4.6 mph - N/A Rain Light Rain
11:34 AM 44.1 °F 39.0 °F 43.3 °F 97% 29.68 in 5.0 mi NW 9.2 mph - N/A Rain Light Rain
11:55 AM 44.1 °F 39.0 °F 43.3 °F 97% 29.69 in 5.0 mi NW 9.2 mph - N/A   Overcast
12:14 PM 44.4 °F 39.5 °F 43.9 °F 98% 29.68 in 5.0 mi NW 9.2 mph - N/A   Overcast
12:34 PM 46.0 °F 40.2 °F 45.5 °F 98% 29.70 in 7.0 mi WNW 12.7 mph 17.3 mph N/A   Overcast
12:54 PM 46.4 °F 40.4 °F 45.3 °F 96% 29.70 in 7.0 mi WNW 13.8 mph 20.7 mph N/A   Overcast
1:14 PM 46.2 °F 39.5 °F 45.0 °F 95% 29.71 in 5.0 mi NW 16.1 mph 21.9 mph N/A   Overcast
1:34 PM 47.5 °F - 45.9 °F 94% 29.71 in 5.0 mi WNW 17.3 mph 21.9 mph N/A   Overcast
1:54 PM 48.6 °F - 46.6 °F 93% 29.72 in 5.0 mi WNW 15.0 mph 19.6 mph N/A   Overcast
2:15 PM 48.6 °F - 46.0 °F 91% 29.73 in 7.0 mi WNW 18.4 mph 24.2 mph N/A   Overcast
2:34 PM 48.2 °F - 45.9 °F 92% 29.74 in 7.0 mi WNW 16.1 mph 21.9 mph N/A   Overcast
2:54 PM 48.9 °F - 46.4 °F 91% 29.75 in 7.0 mi WNW 15.0 mph 18.4 mph N/A   Overcast
3:15 PM 50.0 °F - 46.8 °F 89% 29.75 in 7.0 mi NW 11.5 mph 20.7 mph N/A   Overcast
3:34 PM 53.2 °F - 46.6 °F 78% 29.75 in 10.0 mi WNW 19.6 mph 23.0 mph N/A   Overcast
3:55 PM 53.4 °F - 45.0 °F 73% 29.76 in 10.0 mi NW 16.1 mph 21.9 mph N/A   Mostly Cloudy
4:15 PM 54.9 °F - 44.2 °F 67% 29.76 in 10.0 mi NW 16.1 mph 24.2 mph N/A   Scattered Clouds
4:34 PM 56.1 °F - 43.0 °F 61% 29.76 in 10.0 mi WNW 17.3 mph 25.3 mph N/A   Clear
4:55 PM 57.7 °F - 41.5 °F 55% 29.76 in 10.0 mi WNW 19.6 mph 26.5 mph N/A   Clear
5:14 PM 58.1 °F - 39.9 °F 51% 29.77 in 10.0 mi WNW 15.0 mph 23.0 mph N/A   Clear
5:35 PM 58.6 °F - 37.8 °F 46% 29.77 in 10.0 mi WNW 17.3 mph 31.1 mph N/A   Clear
5:55 PM 59.2 °F - 39.4 °F 48% 29.77 in 10.0 mi WNW 15.0 mph 25.3 mph N/A   Clear
6:14 PM 59.4 °F - 38.3 °F 46% 29.78 in 10.0 mi WNW 12.7 mph 25.3 mph N/A   Clear
6:35 PM 58.6 °F - 37.0 °F 45% 29.79 in 10.0 mi WNW 13.8 mph 25.3 mph N/A   Clear
6:55 PM 58.1 °F - 37.8 °F 47% 29.80 in 10.0 mi WNW 17.3 mph 24.2 mph N/A   Clear
7:14 PM 57.6 °F - 37.0 °F 46% 29.80 in 10.0 mi WNW 13.8 mph 20.7 mph N/A   Clear
7:35 PM 57.2 °F - 36.3 °F 46% 29.80 in 10.0 mi WNW 16.1 mph 21.9 mph N/A   Clear
7:55 PM 56.5 °F - 36.7 °F 48% 29.80 in 10.0 mi WNW 10.4 mph 18.4 mph N/A   Clear
8:14 PM 54.9 °F - 37.6 °F 52% 29.80 in 10.0 mi WNW 8.1 mph - N/A   Clear
8:34 PM 53.2 °F - 37.2 °F 55% 29.81 in 10.0 mi West 4.6 mph - N/A   Clear
8:55 PM 53.4 °F - 37.8 °F 55% 29.81 in 10.0 mi West 4.6 mph - N/A   Clear
9:13 PM 52.7 °F - 37.9 °F 57% 29.81 in 10.0 mi WSW 3.5 mph - N/A   Clear
9:35 PM 50.7 °F - 37.6 °F 61% 29.82 in 10.0 mi Calm Calm - N/A   Scattered Clouds
9:55 PM 47.8 °F - 39.4 °F 72% 29.82 in 10.0 mi Calm Calm - N/A   Scattered Clouds
10:14 PM 46.2 °F - 39.6 °F 78% 29.82 in 10.0 mi Calm Calm - N/A   Mostly Cloudy
10:35 PM 44.6 °F 43.1 °F 39.7 °F 83% 29.83 in 10.0 mi South 3.5 mph - N/A   Scattered Clouds
10:55 PM 45.9 °F 44.6 °F 40.1 °F 80% 29.83 in 10.0 mi South 3.5 mph - N/A   Scattered Clouds
11:14 PM 46.2 °F 45.0 °F 41.0 °F 82% 29.84 in 10.0 mi South 3.5 mph - N/A   Mostly Cloudy
11:35 PM 48.4 °F - 41.2 °F 76% 29.83 in 10.0 mi Calm Calm - N/A   Overcast
11:54 PM 49.3 °F - 40.5 °F 72% 29.83 in 10.0 mi South 3.5 mph - N/A   Overcast